Buffalo, WY

9:33 AM MDT on March 28, 2017 (GMT -0600)
Johnson County

Weather History for KBYG - December, 2013

Change the Weather History Date:

Sunday, December 15, 2013

  Actual Average Record
Temperature  
Mean Temperature 54 °F 25 °F  
Max Temperature 64 °F 36 °F 59 °F (2006)
Min Temperature 45 °F 15 °F -20 °F (2008)
Degree Days  
Heating Degree Days 10 40  
Month to date heating degree days 725 588  
Since 1 July heating degree days 2433 2422  
Cooling Degree Days 0 0  
Month to date cooling degree days 0 0  
Year to date cooling degree days 709 492  
Growing Degree Days 4 (Base 50)    
Moisture  
Dew Point 18 °F    
Average Humidity 27    
Maximum Humidity 37    
Minimum Humidity 16    
Precipitation  
Precipitation 0.00 in 0.01 in 0.10 in (2010)
Month to date precipitation 0.18 0.22  
Year to date precipitation 10.31 13.27  
Sea Level Pressure  
Sea Level Pressure 29.90 in    
Wind  
Wind Speed 10 mph (WNW)    
Max Wind Speed 29 mph    
Max Gust Speed 36 mph    
Visibility 10 miles    
Events      
T = Trace of Precipitation, MM = Missing Value Source: NWS Daily Summary

Daily Weather History Graph

Daily Weather History Graph

Search for Another Location

Airport or City:

Trip Planner

Search our weather history database for the weather conditions in past years. The results will help you decide how hot, cold, wet, or windy it might be!

Date:

Astronomy

Dec. 15, 2013 Rise Set
Actual Time 7:36 AM MST 4:28 PM MST
Civil Twilight 7:02 AM MST 5:01 PM MST
Nautical Twilight 6:26 AM MST 5:38 PM MST
Astronomical Twilight 5:50 AM MST 6:13 PM MST
Moon 3:37 PM MST (12/15) 5:52 AM MST (12/15)
Length of Visible Light 9h 58m
Length of Day
8h 51m
Waxing Gibbous, 98% of the Moon is Illuminated
Dec 15
Waxing Gibbous
Dec 17
Full
Dec 25
Last Quarter
Jan 1
New
Jan 7
First Quarter

Hourly Weather History & Observations

Time (MST) Temp. Windchill Dew Point Humidity Pressure Visibility Wind Dir Wind Speed Gust Speed Precip Events Conditions
12:53 AM 57.0 °F - 21.0 °F 25% 29.99 in 10.0 mi SSW 9.2 mph - N/A   Overcast
1:53 AM 45.0 °F 42.6 °F 19.9 °F 37% 30.00 in 10.0 mi NNW 4.6 mph - N/A   Mostly Cloudy
2:53 AM 55.0 °F - 19.0 °F 24% 29.97 in 10.0 mi NNW 9.2 mph - N/A   Clear
3:53 AM 55.9 °F - 21.0 °F 26% 29.95 in 10.0 mi NW 16.1 mph - N/A   Clear
4:53 AM 60.1 °F - 19.0 °F 20% 29.89 in 10.0 mi NW 20.7 mph 28.8 mph N/A   Clear
5:53 AM 52.0 °F - 19.0 °F 27% 29.92 in 10.0 mi NNW 6.9 mph - N/A   Clear
6:53 AM 57.0 °F - 19.0 °F 23% 29.90 in 10.0 mi SE 9.2 mph - N/A   Clear
7:53 AM 52.0 °F - 18.0 °F 26% 29.96 in 10.0 mi Calm Calm - N/A   Clear
8:53 AM 46.0 °F 44.8 °F 17.1 °F 31% 29.95 in 10.0 mi Variable 3.5 mph - N/A   Clear
9:53 AM 64.0 °F - 18.0 °F 17% 29.93 in 10.0 mi Variable 5.8 mph - N/A   Clear
10:53 AM 64.9 °F - 18.0 °F 16% 29.87 in 10.0 mi SE 4.6 mph - N/A   Clear
11:53 AM 61.0 °F - 19.0 °F 20% 29.86 in 10.0 mi ESE 5.8 mph - N/A   Clear
12:53 PM 55.0 °F - 21.0 °F 27% 29.85 in 10.0 mi Variable 3.5 mph - N/A   Clear
1:53 PM 59.0 °F - 17.1 °F 20% 29.87 in 10.0 mi Calm Calm - N/A   Clear
2:53 PM 53.1 °F - 21.0 °F 29% 29.86 in 10.0 mi Variable 4.6 mph - N/A   Clear
3:53 PM 51.1 °F - 21.0 °F 31% 29.87 in 10.0 mi South 8.1 mph - N/A   Clear
4:53 PM 59.0 °F - 17.1 °F 20% 29.84 in 10.0 mi Calm Calm - N/A   Clear
5:53 PM 55.9 °F - 15.1 °F 20% 29.88 in 10.0 mi WNW 4.6 mph - N/A   Clear
6:53 PM 60.1 °F - 15.1 °F 17% 29.85 in 10.0 mi WNW 23.0 mph 31.1 mph N/A   Clear
7:53 PM 60.1 °F - 16.0 °F 18% 29.87 in 10.0 mi WNW 21.9 mph 31.1 mph N/A   Clear
8:53 PM 59.0 °F - 16.0 °F 19% 29.89 in 10.0 mi WNW 19.6 mph 26.5 mph N/A   Clear
9:53 PM 59.0 °F - 17.1 °F 20% 29.83 in 10.0 mi NW 21.9 mph 36.8 mph N/A   Clear
10:53 PM 57.9 °F - 16.0 °F 19% 29.84 in 10.0 mi NW 23.0 mph 35.7 mph N/A   Clear
11:53 PM 55.9 °F - 16.0 °F 21% 29.87 in 10.0 mi NW 23.0 mph 29.9 mph N/A   Clear